This is the latest recevied weather packets stored in our database for station/object KA7EII-13. If no packets are shown the sender has not sent any weather packets the latest 10 day(s).
| Time | Temp. | Humidity | Pressure | Rain* | Wind** | Luminosity | Snow |
|---|---|---|---|---|---|---|---|
| 1778007075 | 16.11° C | 31% | 1100.4 hPa | 0 mm | - | 768 W/m² | - |
| 1778006772 | 15° C | 29% | 1100.4 hPa | 0 mm | - | 764 W/m² | - |
| 1778006469 | 16.11° C | 31% | 1100.3 hPa | 0 mm | - | 740 W/m² | - |
| 1778006165 | 15.56° C | 29% | 1100.3 hPa | 0 mm | - | 709 W/m² | - |
| 1778005863 | 15.56° C | 30% | 1100.4 hPa | 0 mm | - | 715 W/m² | - |
| 1778005559 | 16.11° C | 29% | 1100.3 hPa | 0 mm | - | 704 W/m² | - |
| 1778005256 | 15.56° C | 29% | 1100.5 hPa | 0 mm | - | 683 W/m² | - |
| 1778004953 | 15.56° C | 28% | 1100.4 hPa | 0 mm | - | 675 W/m² | - |
| 1778004650 | 15.56° C | 28% | 1100.5 hPa | 0 mm | - | 656 W/m² | - |
| 1778004345 | 15° C | 27% | 1100.4 hPa | 0 mm | - | 711 W/m² | - |
| 1778004044 | 15.56° C | 28% | 1100.3 hPa | 0 mm | - | 738 W/m² | - |
| 1778003743 | 15.56° C | 27% | 1100.5 hPa | 0 mm | - | 748 W/m² | - |
| 1778003441 | 15° C | 30% | 1100.1 hPa | 0 mm | - | 754 W/m² | - |
| 1778003138 | 15° C | 28% | 1100.4 hPa | 0 mm | - | 769 W/m² | - |
| 1778002833 | 15° C | 29% | 1100.3 hPa | 0 mm | - | 798 W/m² | - |
| 1778002531 | 15° C | 29% | 1100.4 hPa | 0 mm | - | 815 W/m² | - |
| 1778002227 | 14.44° C | 31% | 1100.6 hPa | 0 mm | - | 799 W/m² | - |
| 1778001925 | 14.44° C | 30% | 1100.4 hPa | 0 mm | - | 803 W/m² | - |
| 1778001621 | 15° C | 29% | 1100.4 hPa | 0 mm | - | 842 W/m² | - |
| 1778001316 | 15° C | 30% | 1100.7 hPa | 0 mm | - | 813 W/m² | - |
| 1778001014 | 14.44° C | 31% | 1100.4 hPa | 0 mm | - | 757 W/m² | - |
| 1778000710 | 14.44° C | 33% | 1100.5 hPa | 0 mm | - | 765 W/m² | - |
| 1778000406 | 15° C | 30% | 1100.6 hPa | 0 mm | - | 782 W/m² | - |
| 1778000102 | 13.89° C | 34% | 1100.8 hPa | 0 mm | - | 762 W/m² | - |
| 1777999798 | 14.44° C | 32% | 1100.5 hPa | 0 mm | - | 731 W/m² | - |
* Rain latest hour (hover to see other rain measurements)
** Current wind speed in m/s (hover to see current wind gust speed)